Location: Lachepaillet
(43.4918°N, 1.4874°W)
Time: 23:09:59
(UTC+00:00)

DELTA 2 R/B (1) - Pass Details

Date: 15 May 2026
Orbit: 787 x 799 km, 39.6° (Epoch: 11 June)

Event Time Altitude Azimuth Distance (km) Brightness Sun altitude
Rises 22:27:47 0° 274° (W) 3,288 7.2 -23.8°
Reaches altitude 10° 22:30:25 10° 267° (W) 2,354 6.2 -24.0°
Enters shadow 22:34:20 33° 227° (SW) 1,292 4.5 -24.3°
